Regional Weather Roundup
Issued by NWS

Home | Current Version | Previous Version | Graphics & Text | Print | Product List | Glossary On
Versions: 1 2 3 4 5 6 7 8 9 10 11 12 13 14 15 16 17 18 19 20 21 22 23 24 25 26 27 28 29 30 31 32 33 34 35 36 37 38 39 40 41 42 43 44 45 46 47 48 49 50
000
ASUS45 KBOU 202007
RWRCO

WEATHER ROUNDUP FOR COLORADO
NATIONAL WEATHER SERVICE DENVER/BOULDER CO
200 PM MDT THU JUL 20 2017

NOTE: "FAIR" INDICATES FEW OR NO CLOUDS BELOW 12000 FEET WITH NO
SIGNIFICANT WEATHER AND/OR OBSTRUCTIONS TO VISIBILITY.

COZ001>005-013-030-031-202100-
...NORTHWEST COLORADO...

CITY           SKY/WX    TMP DP  RH WIND       PRES   REMARKS
CRAIG          FAIR      88  47  24 W8G16     30.23F
HAYDEN         FAIR      84  48  28 NW8G18    30.26F
MEEKER         FAIR      82  58  43 CALM      30.25F
RABBIT EARS PA FAIR      68  46  45 W8        30.62F
STEAMBOAT SPGS FAIR      82  49  32 W7        30.30F
WALDEN         FAIR      79  43  27 S9        30.40F
$$

COZ006>008-011-202100-
...WEST CENTRAL VALLEYS...

CITY           SKY/WX    TMP DP  RH WIND       PRES   REMARKS
GRAND JUNCTION FAIR      93  54  26 W8        30.12F
MONTROSE       FAIR      86  50  28 N7        30.20F
EAGLE          MOSUNNY   88  52  29 VRB6      30.26F
RIFLE          FAIR      86  55  34 W14       30.18F
DELTA          FAIR      95  47  19 S7        30.14F
NUCLA          NOT AVBL
$$

COZ017>023-064>068-202100-
...SOUTHWEST COLORADO...

CITY           SKY/WX    TMP DP  RH WIND       PRES   REMARKS
DURANGO        FAIR      84  44  24 SE8G20    30.28F
CORTEZ         FAIR      89  51  27 SW14G21   30.22F
PAGOSA SPRINGS FAIR      82  41  22 SE3       30.36F
TELLURIDE      FAIR      75  46  36 W12G18    30.49F
WOLF CREEK PAS CLOUDY    54  41  62 NW5       30.77F THUNDER
$$

COZ009-010-012-014-032>034-037-058>063-202100-
...CENTRAL COLORADO...

CITY           SKY/WX    TMP DP  RH WIND       PRES   REMARKS
ASPEN          FAIR      80  47  31 SW17G26   30.35F THUNDER
BUENA VISTA    FAIR      73  42  32 SW8       30.37F
COPPER MTN     CLOUDY    64  41  42 CALM      30.74F
BERTHOUD PASS  PTSUNNY   54  39  58 NW17G23   30.77F THUNDER
COTTONWOOD PAS FAIR      73  45  35 CALM      30.55F
GUNNISON       FAIR      80  45  28 CALM      30.35F
KREMMLING      FAIR      93  43  17 S3        30.32F
LEADVILLE      CLOUDY    65  40  39 N12G18    30.51S
MONARCH PASS   FAIR      66  34  30 S7G23     30.83F
SALIDA         FAIR      90  33  13 S10       30.38F
SUNLIGHT       FAIR      59  45  58 W5        30.66F THUNDER
WILKERSON PASS FAIR      63  36  36 S3        30.71S
$$

COZ069>075-202100-
...SAN LUIS VALLEY/SANGRE DE CRISTO MOUNTAINS...

CITY           SKY/WX    TMP DP  RH WIND       PRES   REMARKS
ALAMOSA        FAIR      82  46  28 VRB7      30.35F
DEL NORTE      FAIR      81  48  31 E12       30.38F
LA VETA PASS   NOT AVBL
SAGUACHE         N/A    N/A N/A N/A MISG        N/A
$$

COZ035-036-038>040-202100-
...NORTHERN COLORADO FRONT RANGE...

CITY           SKY/WX    TMP DP  RH WIND       PRES   REMARKS
DENVER INTL AP FAIR      92  51  24 SE3       30.16F
DMNS CITY PARK   N/A     90  51  25 E2G10     30.14F
AURORA         MOSUNNY   91  51  25 E9        30.18F
FRONT RANGE AP MOSUNNY   93  50  22 NE6       30.18F
ERIE MUNI ARPT FAIR      90  48  23 E7        30.13F
BOULDER MUN AP FAIR      84  54  34 NE5       30.15F
CENTENNIAL     FAIR      90  50  25 E6        30.19F
BROOMFIELD     FAIR      90  52  27 NE5       30.19F
FORT COLLINS   FAIR      92  57  30 E8        30.13F
LONGMONT       FAIR      93  53  25 CALM      30.15F
$$

COZ041-046-047-076>085-087-088-202100-
...PIKES PEAK/PALMER DIVIDE AND SOUTHERN FOOTHILLS...

CITY           SKY/WX    TMP DP  RH WIND       PRES   REMARKS
COLO. SPRINGS  FAIR      88  54  31 SE10      30.24F
A. F. ACADEMY  MOSUNNY   84  51  31 SW12      30.25F
SCHRIEVER AFB  FAIR      85  50  30 SE9       30.25F
CHEYENNE MTN   FAIR      83  51  33 SE12G20   30.25F
ELLICOTT       FAIR     N/A N/A N/A S10G16    30.23F
FALCON           N/A     85  49  28 SE3G17    30.30F
FORT CARSON    FAIR      87  52  30 SW6       30.21F
LIMON          FAIR      88  53  30 VRB3      30.17F
MONUMENT HILL  FAIR      82  48  30 SE3       30.32F
CANON CITY     SUNNY     93  55  27 E7        30.16F
WALSENBURG     FAIR      93  48  21 S12       30.21F
TRINIDAD       FAIR      92  48  22 E7        30.20F
$$

COZ042>045-048>051-090-091-202100-
...NORTHEAST COLORADO...

CITY           SKY/WX    TMP DP  RH WIND       PRES   REMARKS
GREELEY ARPT   FAIR      87  58  37 VRB6      30.12F
AKRON          FAIR      93  53  25 VRB3      30.12F
BURLINGTON     FAIR      92  65  40 NW7       30.07F
WRAY           NOT AVBL
YUMA           FAIR      88  41  19 NW8       30.08F
STERLING       FAIR      90  61  37 NE5       30.08S
HOLYOKE        FAIR      95  61  31 E9        30.07F
FORT MORGAN    FAIR      94  53  24 E12       30.12F
$$

COZ086-089-092>099-202100-
...SOUTHEAST COLORADO...

CITY           SKY/WX    TMP DP  RH WIND       PRES   REMARKS
PUEBLO         FAIR      95  53  24 SE7       30.10F
LA JUNTA       FAIR      93  59  31 VRB7      30.10F
LAMAR          FAIR      95  61  32 VRB5      30.03F
SPRINGFIELD      N/A     93  56  28 SW15G21   30.10F
$$



USA.gov is the U.S. government's official web portal to all federal, state and local government web resources and services.